Location: Banios
(43.0451°N, 0.2335°E)
Time: 03:35:42
(UTC+00:00)

AQUARIUS - Pass Details

Date: 25 January 2021
Orbit: 650 x 652 km, 98.0° (Epoch: 26 February)

Event Time Altitude Azimuth Distance (km) Brightness Sun altitude
Rises 06:19:36 0° 14° (NNE) 2,983 7.6 -11.3°
Reaches altitude 10° 06:21:50 10° 16° (NNE) 2,067 6.8 -10.9°
Maximum altitude 06:26:20 77° 101° (ESE) 674 4.4 -10.1°
Drops below altitude 10° 06:30:49 10° 189° (S) 2,050 6.8 -9.4°
Sets 06:33:01 0° 191° (S) 2,955 7.6 -9.0°
